Simultaneous Nadir Overpasses (SNOs) Predictions

Prediction of SNOs between AQUA and GOES-15 Satellite Orbit:

Table of predicted SNOs for the next 14.0 days since TLE Epoch: 1/3/2014
Index Date Time (AQUA) AQUA Lat,Lon GOES-15 Lat,Lon Distance(km) Time Diff (sec)
1 01/03/2014 22:23:22 0.62,-131.99 0.11,-134.43 277.21 80
2 01/04/2014 10:44:37 0.48,-137.15 -0.12,-134.43 309.72 80
3 01/06/2014 10:32:24 -0.18,-134.18 -0.12,-134.32 16.19 80
4 01/08/2014 10:20:09 -0.75,-131.20 -0.12,-134.21 341.52 80
5 01/08/2014 22:41:33 -0.32,-136.40 0.13,-134.16 254.05 80
6 01/10/2014 22:29:17 0.23,-133.41 0.12,-134.04 71.31 80
7 01/12/2014 22:17:02 0.88,-130.43 0.11,-133.91 396.29 80
8 01/13/2014 10:38:16 0.25,-135.58 -0.12,-133.90 191.10 80
9 01/15/2014 10:26:00 -0.38,-132.60 -0.12,-133.77 133.61 80
10 01/15/2014 22:47:22 -0.72,-137.79 0.12,-133.72 461.70 80
11 01/17/2014 10:13:43 -0.97,-129.61 -0.11,-133.64 458.12 80




NCC Satellite Simultaneous Nadir Overpasses (SNOs) Prediction Service
